Theta_e
321 321 321 321 320 319 319 321 320 319 319 319 319 320 320 320 320 320 320 320 321 321 321 321 320 321 314 302 300 311 323 318 312 311 315 308 301 300 300 303 305 307 310 314 314 313 311
321 321 321 321 320 321 321 319 319 319 319 319 319 319 320 320 320 320 320 321 321 322 321 320 320 321 307 296 308 310 311 311 311 308 306 309 302 304 303 304 304 307 311 314 315 310 312
321 320 321 321 322 322 321 319 319 319 318 318 319 319 320 320 320 320 320 321 321 321 321 320 320 316 307 302 311 311 312 309 310 309 304 308 309 302 301 303 310 308 306 307 310 308 308
321 321 321 321 321 321 320 320 319 318 319 318 318 319 319 319 320 320 320 321 322 322 322 321 320 314 301 313 312 312 312 310 311 311 310 310 310 305 300 305 305 305 305 299 306 306 306
321 321 321 321 319 320 319 319 318 318 318 318 318 318 318 319 319 320 320 321 322 321 321 321 312 306 299 314 307 310 312 308 309 309 309 312 308 302 300 297 295 298 293 295 299 305 305
320 320 319 320 320 319 319 318 318 318 317 317 318 318 317 318 318 319 320 320 320 319 318 318 314 301 303 302 308 309 309 310 306 304 303 301 302 296 295 294 290 291 293 294 296 302 304
321 320 319 319 319 319 319 318 318 317 317 317 317 318 318 317 318 318 314 307 302 299 303 300 301 301 304 308 311 307 309 306 303 298 292 297 293 291 293 297 299 298 297 295 297 303 302
320 320 319 320 319 319 320 319 318 317 317 317 317 318 317 317 318 318 310 303 303 304 297 304 304 305 308 308 301 304 307 297 296 291 294 293 289 296 300 300 299 300 299 297 298 304 300
321 320 320 320 319 319 319 319 318 318 317 317 317 317 317 318 318 309 306 306 311 307 296 301 305 305 306 306 301 301 303 299 295 293 295 291 295 300 300 300 300 301 298 298 297 300 298
322 321 321 320 319 319 319 318 318 318 318 317 317 317 317 318 306 306 305 311 309 308 290 294 300 303 306 307 300 307 305 302 300 295 296 295 300 300 300 299 301 295 302 301 300 297 292
323 322 321 320 320 319 319 318 318 318 318 318 317 317 317 317 305 302 307 308 308 303 280 297 301 308 306 301 301 302 309 304 298 298 296 292 297 297 298 299 303 297 304 300 299 293 291
324 323 322 320 320 320 319 318 318 318 318 318 318 317 317 307 304 306 308 307 306 289 281 294 301 300 299 300 301 304 302 306 306 300 300 297 303 301 298 301 303 302 298 297 293 291 285
325 324 323 321 320 320 319 318 318 318 318 317 317 317 314 314 300 308 307 301 289 283 294 292 295 298 297 295 298 298 296 297 295 291 291 295 296 300 304 296 299 299 294 285 284 284 285
325 325 324 322 320 320 319 318 318 318 317 316 316 316 313 313 309 309 302 293 281 290 290 296 297 297 293 296 296 297 293 294 298 298 293 289 287 295 299 296 294 294 294 286 281 281 284
324 323 323 322 321 320 319 318 318 317 316 315 313 302 302 306 310 307 294 285 287 290 294 294 295 290 290 295 295 293 290 291 293 300 290 288 289 297 299 299 298 293 290 293 284 281 281
321 321 323 322 322 320 319 317 317 317 316 313 301 299 299 309 309 299 290 289 290 297 295 296 288 291 288 291 291 291 291 293 293 297 297 294 286 295 300 298 295 294 297 292 288 279 277
319 318 320 321 320 319 318 317 317 316 314 313 297 292 299 309 302 293 286 287 293 299 298 294 292 291 291 291 291 289 291 295 295 295 294 293 291 289 296 292 291 290 288 289 292 287 282
318 317 316 317 319 319 318 317 316 315 312 306 295 287 299 301 291 287 287 293 299 296 296 295 294 293 292 291 290 289 291 294 296 294 291 292 289 285 288 292 292 293 290 290 285 282 280
316 316 316 316 317 319 317 317 315 313 311 301 293 293 301 301 285 284 289 293 294 294 293 293 292 295 294 289 287 290 294 296 295 294 290 290 287 281 283 288 291 291 291 289 288 285 279
317 316 316 316 315 315 318 317 315 313 313 301 291 286 292 293 289 287 287 289 290 295 293 294 292 292 290 288 290 290 290 296 295 294 302 295 289 284 281 283 285 284 288 288 286 282 280
318 317 316 316 317 314 314 317 315 313 313 300 291 286 289 286 287 287 288 289 288 289 293 292 290 290 288 285 286 286 289 291 294 298 292 289 285 284 285 287 285 285 285 286 284 284 283
318 318 316 316 317 316 314 315 316 313 311 298 290 289 290 288 288 285 289 286 287 290 290 290 287 289 288 286 287 285 287 286 287 290 288 288 284 284 283 288 286 285 287 286 285 284 284
318 318 318 317 317 316 315 313 315 312 308 297 295 296 293 289 285 285 285 288 291 291 292 293 290 288 287 289 290 290 290 290 289 287 286 285 284 283 281 287 287 285 287 287 285 286 286
319 318 317 317 316 316 315 314 314 312 308 301 298 296 291 286 287 287 289 291 291 291 290 293 291 287 289 292 292 289 287 288 288 288 288 284 285 283 279 284 278 286 288 289 288 289 288
319 318 317 317 316 316 315 315 315 314 309 302 299 297 292 288 289 290 290 290 290 290 289 291 290 290 289 290 287 284 284 285 285 286 286 287 286 282 278 279 284 284 286 285 285 286 290
319 318 317 317 316 315 315 315 315 315 311 304 302 300 296 290 287 293 290 289 287 285 286 289 292 290 290 288 285 280 278 282 284 284 287 288 288 284 281 278 277 284 287 289 285 279 285
319 318 318 317 316 315 315 315 315 314 312 308 303 302 297 291 293 294 290 288 290 287 286 287 290 289 287 284 282 279 281 287 283 282 281 281 281 281 281 278 283 288 288 288 278 281 287
318 318 318 317 316 315 315 315 314 314 313 310 305 303 303 294 293 297 297 291 292 290 286 288 288 286 284 281 281 280 280 285 284 285 282 282 278 278 280 278 278 289 287 282 286 287 288
318 317 317 317 316 315 315 314 314 315 314 311 303 305 307 301 295 300 300 299 298 297 293 290 287 287 288 282 281 281 283 283 284 282 284 282 285 282 283 284 289 289 287 287 289 290 289
Wind_Speed
8 7 9 8 8 9 8 9 7 9 10 11 12 12 13 12 12 13 13 12 12 11 11 11 12 14 6 6 9 4 12 10 8 4 3 1 2 3 4 4 3 5 3 6 3 4 4
9 9 9 10 10 8 9 6 9 10 10 11 11 12 13 13 14 15 16 16 15 14 11 9 9 9 3 6 3 4 8 8 3 1 2 2 4 4 6 5 7 3 6 4 4 3 3
7 8 8 9 10 11 10 10 11 10 10 11 12 12 13 14 16 17 18 18 18 16 14 9 4 4 4 16 3 6 6 4 3 2 2 3 3 2 6 5 4 4 4 1 5 5 5
8 9 8 8 10 11 11 11 11 10 11 11 12 13 14 15 17 19 20 20 20 18 14 8 5 1 9 6 6 10 4 6 5 5 5 5 2 3 5 7 5 6 6 5 4 8 3
6 8 8 9 8 9 10 10 10 9 10 12 12 13 15 16 18 21 23 24 18 4 5 9 4 5 11 5 3 7 7 5 3 4 5 3 6 5 3 3 3 3 6 5 2 5 4
5 6 7 8 10 10 10 10 9 9 9 11 13 14 15 17 19 21 25 21 5 5 3 4 4 1 5 5 4 6 5 4 4 1 1 4 3 3 2 4 9 3 6 3 6 6 2
5 6 8 8 9 10 11 11 10 10 9 11 12 14 15 17 18 20 13 5 7 3 2 5 3 4 10 8 6 4 4 2 2 1 4 4 3 6 7 6 7 2 5 5 3 5 6
6 7 7 8 9 10 10 11 11 11 11 11 12 14 16 17 16 18 4 5 2 2 9 5 5 8 8 2 6 5 5 2 2 4 2 2 7 10 11 11 11 9 5 4 2 3 4
5 6 7 8 9 10 11 11 11 11 12 12 13 13 15 17 18 4 2 1 4 2 2 9 5 5 5 5 5 7 8 2 3 2 6 7 10 11 8 8 10 8 4 5 5 3 3
5 6 6 7 8 9 10 11 12 12 12 11 12 12 14 18 3 4 3 4 4 3 5 7 4 4 2 3 6 6 6 4 1 5 4 6 4 7 4 7 8 8 6 5 6 5 4
7 6 5 6 8 8 8 10 11 12 12 11 10 9 9 7 4 2 3 6 2 3 6 7 5 2 7 4 5 3 3 3 5 5 1 5 3 4 4 4 6 6 1 5 4 4 2
9 8 6 5 7 8 8 9 11 12 11 10 10 8 7 3 0 5 6 5 3 6 4 8 4 7 8 4 4 6 2 4 1 5 1 4 2 3 1 3 2 8 7 7 5 4 1
12 9 8 6 5 6 8 9 10 12 13 11 9 8 4 1 3 4 4 3 5 6 4 9 7 5 4 5 7 5 3 3 3 7 6 4 3 4 2 5 5 5 6 3 3 1 5
13 11 10 9 6 4 5 7 10 12 14 11 11 10 4 3 0 4 4 4 1 1 5 5 5 8 4 6 4 6 5 2 2 3 2 6 3 5 6 1 4 2 6 6 5 4 4
11 10 10 10 8 5 4 5 8 10 12 11 9 2 3 3 2 3 5 2 6 5 3 5 8 4 6 4 1 7 4 2 3 5 5 8 6 6 1 2 3 3 2 3 5 2 3
10 9 10 8 9 7 4 5 7 9 10 8 2 3 3 3 4 4 5 5 4 3 2 2 1 1 4 7 7 6 5 1 3 1 3 7 3 1 3 3 1 4 7 4 4 2 2
12 9 7 6 8 8 5 3 7 10 11 3 3 4 3 1 1 5 2 5 5 6 4 5 5 3 5 5 2 4 6 3 4 6 2 6 2 3 9 1 4 2 1 7 5 3 2
13 10 8 6 8 9 7 2 4 9 12 6 2 2 2 2 4 1 2 2 6 5 2 5 3 6 4 2 5 3 4 3 4 1 2 3 3 3 5 3 1 1 2 5 5 6 2
15 12 10 6 6 8 8 4 2 6 7 1 3 2 3 4 0 3 6 5 3 4 4 3 4 4 3 2 3 4 5 2 3 4 3 2 0 3 4 4 4 3 3 3 4 4 5
16 14 12 9 6 5 8 7 1 3 2 4 3 3 4 4 1 3 2 4 5 5 5 5 5 2 3 2 4 5 4 4 3 2 4 3 1 4 4 3 3 4 4 4 4 3 5
16 14 14 12 9 7 5 7 5 2 4 3 3 2 2 2 2 2 0 2 4 5 4 5 4 5 4 4 4 2 3 6 2 5 3 2 3 2 5 5 3 4 5 5 7 4 6
18 17 16 14 11 10 7 5 8 6 7 4 4 2 2 1 1 2 2 3 1 5 1 5 4 9 6 4 4 5 3 2 2 5 3 2 3 2 3 3 2 4 6 6 4 2 6
20 18 17 15 12 10 9 7 9 9 4 3 1 1 4 2 1 3 4 3 2 3 5 5 4 7 7 6 5 6 6 5 5 2 3 2 2 4 5 5 6 5 3 5 4 4 6
21 19 18 16 14 12 11 10 8 11 4 4 2 3 3 4 3 5 2 1 4 3 4 9 5 4 4 7 6 3 4 6 5 4 3 1 2 2 4 5 2 5 1 1 4 5 5
23 22 20 18 16 13 12 11 10 12 8 4 2 4 3 3 2 5 5 4 4 6 5 6 5 3 4 5 4 6 6 5 2 0 1 1 3 2 3 1 7 2 1 0 1 5 2
24 23 22 21 18 15 13 11 11 10 11 4 2 4 3 2 5 0 1 2 2 2 6 4 5 5 2 3 3 1 3 2 5 3 3 3 3 4 2 2 4 4 1 1 1 5 5
26 25 24 22 20 18 16 14 12 10 15 4 2 4 4 2 4 4 4 3 1 1 2 4 7 7 4 2 1 3 4 3 2 2 2 2 3 4 2 3 9 5 2 1 4 8 3
27 26 25 24 21 20 18 16 13 11 16 5 2 5 3 2 5 5 4 4 0 1 2 4 4 3 4 2 2 3 3 3 2 3 5 6 5 3 2 1 6 5 1 3 6 2 2
29 27 26 25 23 21 19 16 15 14 13 8 3 2 2 2 5 2 5 6 8 8 4 2 2 1 3 2 1 1 3 1 2 3 1 3 6 4 9 8 4 5 4 3 4 4 4
Wind_Direction
25 4 357 360 346 344 335 335 353 334 332 331 332 332 330 329 326 319 312 307 302 299 303 315 324 336 357 350 254 285 333 338 325 1 11 136 157 179 221 205 238 216 235 188 167 175 155
14 4 1 354 355 345 336 342 334 331 333 334 331 330 324 324 316 309 306 303 299 297 298 309 325 326 319 304 262 320 338 330 288 300 134 151 216 248 286 257 189 225 189 198 223 205 177
10 8 9 1 357 356 350 336 336 334 334 327 326 322 319 317 313 310 306 303 301 296 289 285 289 290 262 248 266 308 307 250 216 234 225 213 206 150 347 281 311 204 167 308 213 181 207
7 2 1 7 359 355 348 340 337 333 327 323 321 322 320 318 319 317 314 311 306 297 276 238 219 115 251 256 293 294 223 283 229 227 236 247 179 195 182 304 313 148 134 203 222 152 188
0 359 356 5 358 356 349 346 340 335 328 323 321 320 323 323 325 323 320 317 309 343 128 161 149 120 271 303 284 270 179 249 241 180 208 254 138 193 194 242 296 242 193 178 198 200 125
353 357 359 2 349 359 355 352 344 335 328 324 324 323 324 326 327 329 325 320 293 122 102 163 160 94 276 305 306 289 216 240 251 284 174 183 171 161 197 165 217 175 118 110 161 186 117
335 339 350 0 353 354 360 356 347 332 328 328 329 327 326 330 330 332 341 360 10 343 43 243 186 219 283 288 270 258 282 157 206 145 190 198 160 200 215 195 254 221 147 145 190 169 134
328 331 342 350 351 352 1 359 349 337 330 329 330 333 331 330 327 324 320 65 127 231 315 259 252 257 274 232 309 276 133 188 163 230 230 2 225 210 205 203 237 252 224 173 68 121 126
308 323 333 342 346 352 355 356 353 343 335 329 329 333 334 329 321 2 3 102 54 81 282 296 221 222 252 151 253 273 164 171 216 250 213 185 238 211 194 193 210 232 215 159 148 105 69
293 323 322 330 339 348 352 351 349 346 341 330 325 330 338 333 359 332 329 13 354 148 46 285 303 281 172 229 279 223 210 164 223 268 198 223 242 207 164 203 189 222 180 139 127 107 191
269 282 310 319 331 342 350 347 346 345 342 330 322 326 335 349 278 312 307 317 277 64 28 327 303 274 305 220 306 293 186 132 251 270 136 264 177 193 178 195 160 213 100 126 119 108 116
259 259 277 303 320 332 340 346 346 345 344 335 327 324 342 62 62 260 308 316 45 42 317 326 315 329 2 324 289 302 216 45 336 310 359 256 266 72 266 78 22 147 84 50 53 81 346
252 253 244 253 288 320 335 341 350 343 344 337 322 310 306 254 236 326 325 55 26 97 4 310 309 349 336 291 312 345 347 28 68 335 0 340 20 346 42 65 32 94 83 39 42 29 215
246 255 238 244 258 286 328 338 351 345 342 334 313 304 271 222 223 24 14 47 194 215 262 288 312 325 312 5 306 326 337 16 76 15 352 9 1 15 343 304 165 82 151 152 192 180 213
242 248 249 240 260 265 312 339 353 351 342 334 329 339 303 274 211 121 65 31 211 213 227 315 334 359 314 330 303 353 330 323 181 146 85 10 310 330 229 294 129 167 143 122 105 28 58
236 254 256 240 249 249 293 330 346 353 339 343 26 349 309 328 140 69 72 247 251 228 313 128 82 65 314 305 0 2 317 324 321 80 131 158 291 289 324 326 164 175 170 106 17 97 278
232 243 253 252 259 238 255 324 343 348 339 4 49 35 300 318 66 53 181 250 291 259 230 177 181 264 246 293 287 295 290 308 24 326 55 169 188 7 14 300 204 99 55 62 97 153 178
225 222 225 242 253 240 230 274 3 357 337 57 76 17 296 40 42 63 233 252 306 288 307 265 182 194 222 275 295 283 282 272 3 289 242 208 189 239 170 251 251 152 201 128 142 204 236
210 222 224 225 255 243 229 252 37 31 18 106 84 274 322 81 213 314 303 293 267 311 309 302 279 202 156 259 308 234 317 287 326 319 347 327 323 33 34 343 360 302 243 124 99 82 191
218 209 212 207 212 226 223 240 167 56 79 92 80 1 330 49 29 150 337 284 313 308 270 296 278 330 351 299 185 294 322 302 324 300 326 4 346 165 187 203 163 198 252 165 148 136 170
215 217 215 205 197 197 212 223 185 141 129 86 53 245 191 287 320 220 33 285 304 318 328 335 327 29 323 300 316 276 289 318 319 336 1 79 289 294 254 227 212 254 240 191 198 187 172
208 211 214 212 194 185 193 222 177 171 130 75 129 128 23 251 291 203 206 249 260 330 270 307 23 328 318 272 236 282 331 305 271 326 344 355 254 311 275 360 339 249 233 218 227 205 280
212 207 207 212 201 187 186 182 178 185 123 105 132 337 110 254 145 113 227 224 175 335 277 232 349 330 306 281 287 246 221 248 245 305 306 348 8 24 289 342 321 312 280 201 188 181 167
208 206 206 205 205 190 187 184 188 193 136 123 176 107 102 266 174 203 237 85 286 281 257 292 295 205 267 310 282 260 247 245 229 226 198 280 90 77 260 349 360 246 272 264 233 256 214
205 202 203 204 205 196 192 187 188 187 156 105 142 118 146 252 229 284 255 238 303 282 248 238 269 242 316 0 354 346 334 10 13 186 227 185 119 65 81 246 288 29 33 89 78 297 271
203 205 202 200 198 194 191 190 184 180 160 99 145 122 115 115 243 243 305 271 253 293 325 274 313 306 359 75 56 126 265 261 330 335 83 64 69 112 90 88 238 252 312 338 106 313 344
199 203 203 200 195 192 192 192 184 178 173 125 159 131 100 206 260 156 184 209 253 108 254 306 335 343 13 69 139 171 252 224 264 248 193 355 7 169 158 241 286 246 271 279 71 244 332
197 202 201 199 193 196 193 189 183 179 179 129 133 159 145 217 275 205 198 156 65 84 163 289 6 344 358 25 152 241 196 253 316 226 188 180 149 201 77 83 303 175 106 188 213 210 199
195 199 199 196 194 194 193 191 184 178 172 170 121 84 141 206 248 299 251 205 189 198 156 253 208 308 220 42 326 330 282 229 169 276 43 282 183 192 177 219 254 216 208 179 168 175 194